Starlink 3895

operational
NORAD ID: 52583 Int'l Des: 2022-051 Owner: SPXS Country: US Constellation: starlink
LEOCIRCULAR

About Starlink 3895

Description loading...

Live Position

Loading 3D Globe...

Upcoming Passes

Altitude History

Altitude vs Time

uPlot chart will show altitude changes over time

Two-Line Element Set

1 52583U 22051AZ 25306.35710896 .00000358 00000-0 40616-4 0 9995
2 52583 53.2184 330.7404 0001504 93.8973 266.2192 15.08840694192362
Epoch: Nov 2, 2025 • Age: 19 hours

Current Status

Altitude 559.3 km
Velocity 7.58 km/s
Sub-Earth Point -53.11°S, 153.39°E
Launch Date May 13, 2022
Age 3.4 years
Type internet

Technical Details

Classification Payload
Mass 297.00 kg
Dry Mass 275.00 kg
Total Mass 297.00 kg
Length 0.20 m
Diameter 2.80 m
Span 9.00 m
Shape Box + pan
Manufacturer SPXS
Bus Type Starlink
Phase Status In Orbit
Owner/State SPXS/US

Large Constellations

Loading constellations...